• In Hungary
  • List of Countries
  • For 7 days
  • Water Temperature
  • Satellite Maps
  • Weather Map
  • News
  • Weather Widgets
  • user-avatar
    Login

    Hourly Weather Arkalyk

    Today, 22 September, Saturday

    Time Temperature Precipitation Wind Pressure Humidity
    00:00 +10°C° 0 mm 7 mps 728 mmHg 72%
    01:00 +10°C° 0 mm 7 mps 728 mmHg 72%
    02:00 +9°C° 0 mm 6 mps 728 mmHg 71%
    03:00 +9°C° 0 mm 6 mps 728 mmHg 70%
    04:00 +9°C° 0 mm 6 mps 729 mmHg 69%
    05:00 +9°C° 0 mm 6 mps 729 mmHg 68%
    06:00 +10°C° 0 mm 7 mps 729 mmHg 66%
    07:00 +10°C° 0 mm 7 mps 729 mmHg 65%
    08:00 +11°C° 0 mm 7 mps 730 mmHg 63%
    09:00 +14°C° 0 mm 7 mps 730 mmHg 61%
    10:00 +15°C° 0 mm 7 mps 730 mmHg 59%
    11:00 +15°C° 0 mm 7 mps 730 mmHg 59%
    12:00 +15°C° 0 mm 6 mps 730 mmHg 59%
    13:00 +16°C° 0 mm 6 mps 731 mmHg 59%
    14:00 +16°C° 0 mm 6 mps 731 mmHg 59%
    15:00 +16°C° 0 mm 5 mps 731 mmHg 59%
    16:00 +16°C° 0 mm 5 mps 731 mmHg 59%
    17:00 +15°C° 0 mm 4 mps 731 mmHg 64%
    18:00 +14°C° 0 mm 3 mps 731 mmHg 68%
    19:00 +14°C° 0 mm 2 mps 732 mmHg 72%
    20:00 +14°C° 0 mm 2 mps 732 mmHg 72%
    21:00 +13°C° 0 mm 3 mps 732 mmHg 73%
    22:00 +13°C° 0 mm 3 mps 732 mmHg 74%
    23:00 +12°C° 0 mm 3 mps 732 mmHg 75%

    Tomorrow, 23 September, Sunday

    Time Temperature Precipitation Wind Pressure Humidity
    00:00 +12°C° 0 mm 3 mps 731 mmHg 75%
    01:00 +12°C° 0 mm 3 mps 731 mmHg 76%
    02:00 +12°C° 0 mm 3 mps 731 mmHg 76%
    03:00 +12°C° 0 mm 3 mps 732 mmHg 75%
    04:00 +12°C° 0 mm 3 mps 732 mmHg 75%
    05:00 +12°C° 0 mm 4 mps 732 mmHg 73%
    06:00 +12°C° 0 mm 4 mps 732 mmHg 72%
    07:00 +12°C° 0 mm 4 mps 732 mmHg 70%
    08:00 +13°C° 0 mm 5 mps 732 mmHg 65%
    09:00 +14°C° 0 mm 5 mps 732 mmHg 60%
    10:00 +16°C° 0 mm 5 mps 733 mmHg 55%
    11:00 +16°C° 0 mm 5 mps 732 mmHg 52%
    12:00 +16°C° 0 mm 5 mps 732 mmHg 48%
    13:00 +17°C° 0 mm 5 mps 732 mmHg 45%
    14:00 +17°C° 0 mm 5 mps 733 mmHg 44%
    15:00 +16°C° 0 mm 5 mps 733 mmHg 43%
    16:00 +17°C° 0 mm 4 mps 733 mmHg 42%
    17:00 +15°C° 0 mm 4 mps 733 mmHg 47%
    18:00 +14°C° 0 mm 3 mps 734 mmHg 51%
    19:00 +13°C° 0 mm 3 mps 734 mmHg 55%
    20:00 +13°C° 0 mm 3 mps 734 mmHg 59%
    21:00 +13°C° 0 mm 2 mps 734 mmHg 62%
    22:00 +12°C° 0 mm 2 mps 734 mmHg 65%
    23:00 +12°C° 0 mm 2 mps 734 mmHg 68%

    Day after tomorrow, 24 September, Monday

    Time Temperature Precipitation Wind Pressure Humidity
    00:00 +10°C° 0 mm 2 mps 734 mmHg 70%
    01:00 +10°C° 0 mm 2 mps 735 mmHg 73%
    02:00 +11°C° 0 mm 1 mps 735 mmHg 75%
    03:00 +10°C° 0 mm 1 mps 735 mmHg 78%
    04:00 +10°C° 0 mm 1 mps 735 mmHg 81%
    05:00 +10°C° 0 mm 1 mps 735 mmHg 77%
    06:00 +11°C° 0 mm 1 mps 736 mmHg 73%
    07:00 +12°C° 0 mm 1 mps 736 mmHg 70%
    08:00 +13°C° 0 mm 1 mps 736 mmHg 64%
    09:00 +14°C° 0 mm 1 mps 736 mmHg 59%
    10:00 +15°C° 0 mm 1 mps 737 mmHg 54%
    11:00 +16°C° 0 mm 1 mps 736 mmHg 50%
    12:00 +18°C° 0 mm 1 mps 736 mmHg 46%
    13:00 +19°C° 0 mm 1 mps 736 mmHg 43%
    14:00 +19°C° 0 mm 1 mps 736 mmHg 41%
    15:00 +19°C° 0 mm 1 mps 736 mmHg 40%
    16:00 +19°C° 0 mm 1 mps 737 mmHg 39%
    17:00 +18°C° 0 mm 1 mps 737 mmHg 43%
    18:00 +15°C° 0 mm 0 mps 737 mmHg 48%
    19:00 +14°C° 0 mm 0 mps 737 mmHg 52%
    20:00 +15°C° 0 mm 1 mps 737 mmHg 52%
    21:00 +14°C° 0 mm 1 mps 737 mmHg 52%
    22:00 +14°C° 0 mm 2 mps 737 mmHg 52%
    23:00 +14°C° 0 mm 2 mps 737 mmHg 53%

    25 September, Tuesday

    Time Temperature Precipitation Wind Pressure Humidity
    00:00 +13°C° 0 mm 2 mps 737 mmHg 55%
    01:00 +13°C° 0 mm 2 mps 737 mmHg 56%
    02:00 +12°C° 0 mm 3 mps 737 mmHg 57%
    03:00 +11°C° 0 mm 3 mps 737 mmHg 58%
    04:00 +11°C° 0 mm 3 mps 737 mmHg 59%
    05:00 +12°C° 0 mm 3 mps 737 mmHg 57%
    06:00 +12°C° 0 mm 3 mps 737 mmHg 55%
    07:00 +13°C° 0 mm 3 mps 738 mmHg 52%
    08:00 +16°C° 0 mm 3 mps 738 mmHg 46%
    09:00 +17°C° 0 mm 3 mps 738 mmHg 40%
    10:00 +19°C° 0 mm 3 mps 738 mmHg 34%
    11:00 +20°C° 0 mm 3 mps 738 mmHg 31%
    12:00 +21°C° 0 mm 3 mps 738 mmHg 29%
    13:00 +22°C° 0 mm 3 mps 738 mmHg 26%
    14:00 +22°C° 0 mm 3 mps 738 mmHg 26%
    15:00 +22°C° 0 mm 3 mps 737 mmHg 25%
    16:00 +22°C° 0 mm 3 mps 737 mmHg 25%
    17:00 +20°C° 0 mm 2 mps 737 mmHg 29%
    18:00 +18°C° 0 mm 2 mps 737 mmHg 33%
    19:00 +18°C° 0 mm 1 mps 737 mmHg 37%
    20:00 +18°C° 0 mm 1 mps 737 mmHg 37%
    21:00 +16°C° 0 mm 2 mps 737 mmHg 37%
    22:00 +16°C° 0 mm 2 mps 738 mmHg 37%
    23:00 +16°C° 0 mm 2 mps 738 mmHg 39%

    26 September, Wednesday

    Time Temperature Precipitation Wind Pressure Humidity
    00:00 +14°C° 0 mm 3 mps 738 mmHg 40%
    01:00 +14°C° 0 mm 3 mps 738 mmHg 42%
    02:00 +14°C° 0 mm 3 mps 738 mmHg 43%
    03:00 +13°C° 0 mm 3 mps 738 mmHg 45%
    04:00 +13°C° 0 mm 3 mps 738 mmHg 46%
    05:00 +13°C° 0 mm 3 mps 738 mmHg 45%
    06:00 +14°C° 0 mm 3 mps 738 mmHg 44%
    07:00 +14°C° 0 mm 3 mps 738 mmHg 43%
    08:00 +17°C° 0 mm 3 mps 738 mmHg 38%
    09:00 +19°C° 0 mm 3 mps 739 mmHg 34%
    10:00 +21°C° 0 mm 3 mps 739 mmHg 29%
    11:00 +22°C° 0 mm 4 mps 738 mmHg 27%
    12:00 +23°C° 0 mm 4 mps 738 mmHg 25%
    13:00 +23°C° 0 mm 4 mps 738 mmHg 22%
    14:00 +24°C° 0 mm 3 mps 738 mmHg 22%
    15:00 +24°C° 0 mm 3 mps 738 mmHg 22%
    16:00 +24°C° 0 mm 3 mps 737 mmHg 22%
    17:00 +22°C° 0 mm 3 mps 737 mmHg 25%
    18:00 +20°C° 0 mm 3 mps 737 mmHg 29%
    19:00 +19°C° 0 mm 2 mps 737 mmHg 32%
    20:00 +18°C° 0 mm 3 mps 737 mmHg 33%
    21:00 +18°C° 0 mm 3 mps 737 mmHg 34%
    22:00 +17°C° 0 mm 3 mps 737 mmHg 35%
    23:00 +17°C° 0 mm 3 mps 737 mmHg 36%

    27 September, Thursday

    Time Temperature Precipitation Wind Pressure Humidity
    00:00 +17°C° 0 mm 3 mps 737 mmHg 37%
    01:00 +16°C° 0 mm 3 mps 737 mmHg 38%
    02:00 +16°C° 0 mm 3 mps 737 mmHg 40%
    03:00 +16°C° 0 mm 3 mps 737 mmHg 42%
    04:00 +14°C° 0 mm 3 mps 737 mmHg 45%
    05:00 +16°C° 0 mm 3 mps 737 mmHg 45%
    06:00 +16°C° 0 mm 3 mps 737 mmHg 45%
    07:00 +17°C° 0 mm 3 mps 737 mmHg 45%
    08:00 +19°C° 0 mm 3 mps 737 mmHg 40%
    09:00 +21°C° 0 mm 3 mps 736 mmHg 34%
    10:00 +24°C° 0 mm 3 mps 736 mmHg 29%
    11:00 +24°C° 0 mm 3 mps 736 mmHg 26%
    12:00 +25°C° 0 mm 3 mps 735 mmHg 24%
    13:00 +26°C° 0 mm 3 mps 735 mmHg 22%
    14:00 +26°C° 0 mm 3 mps 735 mmHg 22%
    15:00 +26°C° 0 mm 3 mps 734 mmHg 22%
    16:00 +26°C° 0 mm 3 mps 734 mmHg 22%
    17:00 +24°C° 0 mm 3 mps 734 mmHg 24%
    18:00 +22°C° 0 mm 3 mps 733 mmHg 27%
    19:00 +20°C° 0 mm 3 mps 733 mmHg 29%
    20:00 +20°C° 0 mm 3 mps 733 mmHg 30%
    21:00 +19°C° 0 mm 3 mps 733 mmHg 31%
    22:00 +18°C° 0 mm 3 mps 732 mmHg 32%
    23:00 +18°C° 0 mm 3 mps 732 mmHg 32%
    Show more